[[{"header":{"parameterUnit":"m.s-1","parameterCategory":1,"la1":30.2991,"la2":30.254,"lo1":-89.0895,"lo2":-89.0444,"dy":0.0017,"dx":0.0017,"nx":28,"ny":28,"refTime":"2025-01-19T03:00:00:Z","depth":0,"parameterNumber":2,"parameterNumberName":"U-component_of_WINDS"},"data":[0,0,0,0,0,0,0,0,0,0,0,0,0,0,0,0,0,0,0,0,0,0,0,0,0,0,0,0,0,0,0,0,0,0,0,0,0,0,0,0,0,0,0,0,0,0,0,0,0,0,0,0,0,0,0,0,0,0,3.6424,3.6425,0,3.6506,3.6507,3.6508,3.6486,3.6484,3.6483,3.6481,3.6565,3.6569,3.6572,0,0,0,0,0,0,0,0,0,0,0,0,0,3.625,3.6254,3.6424,3.6425,3.6426,3.6506,3.6507,3.6508,3.6486,3.6484,3.6482,3.648,3.6564,3.6568,3.6573,0,0,0,0,0,0,0,0,0,0,0,0,0,3.6328,3.6255,3.6424,3.6425,3.6426,3.6506,3.6507,3.6509,3.6487,3.6484,3.6482,3.648,3.6562,3.6568,3.6573,3.6658,0,0,3.6591,3.6593,0,0,0,0,0,0,0,0,3.6324,3.6335,3.6424,3.6425,3.6426,3.6483,3.6477,3.6559,3.6487,3.6464,3.6481,3.6478,3.654,3.6547,3.6568,3.6662,3.6665,3.6591,3.6595,3.6597,3.6599,0,0,0,0,0,0,0,3.6319,3.6331,3.6457,3.6425,3.6427,3.6422,3.643,3.6492,3.6515,3.6466,3.6464,3.6474,3.654,3.6563,3.657,3.6666,3.6591,3.6596,3.66,3.6602,3.6836,3.6839,0,0,0,0,0,0,3.6312,3.6327,3.6454,3.6459,3.6368,3.6427,3.6436,3.6468,3.6514,3.6519,3.6476,3.6473,3.6554,3.6563,3.6573,3.6676,3.6597,3.6602,3.6606,3.6833,3.6837,3.684,0,0,0,0,0,0,3.6309,3.6324,3.6451,3.6393,3.6409,3.6433,3.6468,3.647,3.6493,3.6522,3.6526,3.6495,3.6553,3.6565,3.6637,3.6678,3.6605,3.661,3.683,3.6834,3.6838,3.6882,0,0,0,0,0,0,3.6304,3.6323,3.6354,3.6394,3.6412,3.6514,3.647,3.6474,3.6503,3.6499,3.6541,3.6545,3.6552,3.6629,3.6643,3.6685,3.6614,3.6826,3.6832,3.6837,3.6877,3.6887,3.6896,0,0,0,0,0,3.6298,3.6363,3.6356,3.6371,3.6452,3.6516,3.6526,3.6532,3.6506,3.6539,3.6558,3.6544,3.6672,3.6637,3.6652,3.6696,3.6824,3.683,3.6837,3.6873,3.6885,3.6896,0,0,0,0,0,0,3.6326,3.6368,3.6361,3.644,3.6475,3.6512,3.6553,3.6545,3.6588,3.6583,3.6589,3.6598,3.6673,3.6692,3.6652,3.6782,3.6744,3.6754,3.6766,3.6779,3.6788,3.6782,3.6619,0,0,0,0,0,3.6342,3.6391,3.6424,3.6491,3.6509,3.6528,3.6556,3.6559,3.6595,3.6609,3.6633,3.6669,3.6718,3.6749,3.6795,3.688,3.689,3.6919,3.6928,3.6936,3.6944,3.6993,3.7006,3.6861,3.6861,3.6861,0,0,3.6375,3.6404,3.6434,3.6498,3.6525,3.6576,3.6541,3.6595,3.6633,3.6617,3.6687,3.6707,3.6747,3.6827,3.6864,3.6845,3.6987,3.6944,3.695,3.6954,3.7001,3.7014,3.7027,3.6865,3.6864,3.6864,0,0,3.6461,3.6487,3.6547,3.6575,3.6617,3.663,3.6644,3.6684,3.6696,3.6767,3.6757,3.6803,3.6885,3.6915,3.6941,3.7042,3.7032,3.7057,3.7106,3.7154,3.7165,3.7175,3.7213,3.7226,3.7065,3.7065,3.7066,0,3.6496,3.6572,3.6578,3.6635,3.6664,3.6653,3.6715,3.6742,3.6797,3.6817,3.6797,3.6902,3.6929,3.7016,3.7041,3.7062,3.708,3.7052,3.7163,3.7173,3.7183,3.7218,3.7232,3.7068,3.7068,3.7068,3.7067,0,3.6614,3.6667,3.6711,3.6765,3.6799,3.6858,3.6874,3.6908,3.6908,3.6924,3.6997,3.7029,3.7082,3.7104,3.7103,3.7192,3.718,3.7161,3.7123,3.72,3.7233,3.7247,3.7072,3.7071,3.7071,3.707,0,0,3.6718,3.6777,3.6793,3.6819,3.6865,3.6907,3.6966,3.7019,3.7049,3.7088,3.7138,3.721,3.7194,3.7224,3.7228,3.7269,3.7349,3.7246,3.7247,3.7264,3.7451,3.7464,3.748,3.7343,3.7345,3.7347,3.7447,0,3.6809,3.6912,3.6921,3.7015,3.7065,3.7057,3.7109,3.7144,3.7161,3.7206,3.7225,3.7276,3.725,3.7269,3.7309,3.7331,3.7387,3.7324,3.739,3.7393,3.738,3.7497,3.7511,3.7604,3.746,3.7463,3.7464,0,3.6927,3.6971,3.707,3.7112,3.7133,3.718,3.723,3.7274,3.7314,3.7324,3.7358,3.7357,3.742,3.738,3.7467,3.7424,3.7453,3.7468,3.7471,3.7478,3.7433,3.7507,3.7634,3.7648,3.7485,3.7483,3.7482,0,3.6995,3.7078,3.7149,3.7171,3.7221,3.7254,3.7277,3.7315,3.7347,3.7392,3.7413,3.7464,3.7492,3.7532,3.7546,3.7516,3.7633,3.7594,3.7643,3.7643,3.7667,3.7665,3.7801,3.7685,3.7685,3.7685,3.7685,0,3.7094,3.7155,3.718,3.7223,3.7292,3.7303,3.7371,3.7392,3.7426,3.7475,3.7471,3.7516,3.7531,3.758,3.7591,3.7662,3.7674,3.7685,3.7687,3.7685,3.7684,3.7703,3.7697,3.7689,3.7688,3.7687,3.7687,0,3.7181,3.7199,3.7276,3.7318,3.7331,3.738,3.7416,3.7459,3.7476,3.7537,3.7552,3.758,3.7637,3.7654,3.7723,3.7731,3.7814,3.781,3.7801,3.7801,3.7849,3.7845,3.8001,3.8023,3.7894,3.7895,3.7896,0,3.7243,3.729,3.7338,3.737,3.7395,3.7447,3.748,3.7493,3.7528,3.7579,3.7616,3.7673,3.7719,3.7811,3.7837,3.789,3.7888,3.794,3.7896,3.7894,3.789,3.7887,3.7893,3.7948,3.7949,3.795,3.7951,0,3.7352,3.736,3.7408,3.746,3.75,3.7541,3.7582,3.7608,3.7628,3.7667,3.7726,3.7762,3.7834,3.789,3.7945,3.7969,3.7964,3.7965,3.7979,3.7978,3.797,3.7976,3.7823,3.7961,3.796,3.7959,3.7959,3.7958,3.7429,3.7471,3.7512,3.7566,3.7598,3.7637,3.768,3.7703,3.7752,3.7811,3.7816,3.788,3.7922,3.7995,3.8023,3.8074,3.8059,3.808,3.8085,3.809,3.8094,3.7963,3.8084,3.8084,3.8083,3.8083,3.8083,0,3.7538,3.7565,3.7615,3.7672,3.7715,3.7707,3.7752,3.7789,3.7845,3.7885,3.7931,3.8,3.8056,3.8088,3.8144,3.8179,3.8178,3.8194,3.8191,3.8197,3.8104,3.8086,3.8193,3.8193,3.8193,3.8193,3.8193,3.8193,3.76,3.7672,3.7685,3.7773,3.78,3.7863,3.7889,3.7925,3.7957,3.8034,3.8081,3.8102,3.8139,3.8198,3.825,3.8258,3.8279,3.8296,3.8303,3.8215,3.8203,3.8193,3.8176,3.8301,3.8301,3.8392,3.8393,3.8394]},{"header":{"parameterUnit":"m.s-1","parameterCategory":1,"la1":30.2991,"la2":30.254,"lo1":-89.0895,"lo2":-89.0444,"dy":0.0017,"dx":0.0017,"nx":28,"ny":28,"refTime":"2025-01-19T03:00:00:Z","depth":0,"parameterNumber":3,"parameterNumberName":"V-component_of_WINDS"},"data":[0,0,0,0,0,0,0,0,0,0,0,0,0,0,0,0,0,0,0,0,0,0,0,0,0,0,0,0,0,0,0,0,0,0,0,0,0,0,0,0,0,0,0,0,0,0,0,0,0,0,0,0,0,0,0,0,0,0,-7.4371,-7.4373,0,-7.4564,-7.4566,-7.4568,-7.4533,-7.4529,-7.4526,-7.4523,-7.4715,-7.4723,-7.4732,0,0,0,0,0,0,0,0,0,0,0,0,0,-7.397,-7.3978,-7.4371,-7.4374,-7.4376,-7.4563,-7.4566,-7.4569,-7.4533,-7.4529,-7.4525,-7.4521,-7.4713,-7.4722,-7.4732,0,0,0,0,0,0,0,0,0,0,0,0,0,-7.4152,-7.398,-7.4371,-7.4381,-7.4384,-7.4563,-7.4566,-7.4569,-7.4534,-7.4529,-7.4524,-7.4519,-7.4709,-7.4721,-7.4734,-7.4913,0,0,-7.4772,-7.4777,0,0,0,0,0,0,0,0,-7.4141,-7.4166,-7.4377,-7.4381,-7.4384,-7.4519,-7.4495,-7.4684,-7.4535,-7.4477,-7.4522,-7.4516,-7.4654,-7.467,-7.4718,-7.4922,-7.493,-7.4773,-7.478,-7.4786,-7.4789,0,0,0,0,0,0,0,-7.4129,-7.4158,-7.4447,-7.438,-7.4385,-7.4375,-7.4395,-7.4531,-7.4592,-7.4482,-7.448,-7.4503,-7.4655,-7.4706,-7.4722,-7.4933,-7.4773,-7.4784,-7.4791,-7.4796,-7.5296,-7.5301,0,0,0,0,0,0,-7.4114,-7.4148,-7.4441,-7.4453,-7.4248,-7.4386,-7.4409,-7.4481,-7.459,-7.4602,-7.4507,-7.4501,-7.4687,-7.4707,-7.4729,-7.4947,-7.4786,-7.4797,-7.4805,-7.529,-7.5297,-7.5303,0,0,0,0,0,0,-7.4105,-7.414,-7.4433,-7.43,-7.4337,-7.4399,-7.448,-7.4487,-7.4538,-7.4609,-7.462,-7.4548,-7.4684,-7.4711,-7.4868,-7.4953,-7.4803,-7.4814,-7.5283,-7.5292,-7.53,-7.5384,0,0,0,0,0,0,-7.4094,-7.4137,-7.4207,-7.4302,-7.4344,-7.4571,-7.4485,-7.4495,-7.456,-7.4554,-7.4651,-7.4662,-7.4682,-7.485,-7.4881,-7.4968,-7.4824,-7.5276,-7.5287,-7.5297,-7.5374,-7.5395,-7.5412,0,0,0,0,0,-7.408,-7.4221,-7.421,-7.4246,-7.4432,-7.4576,-7.46,-7.4621,-7.4567,-7.4637,-7.4683,-7.4659,-7.4939,-7.4866,-7.4901,-7.4992,-7.5271,-7.5284,-7.5297,-7.5366,-7.5391,-7.5412,0,0,0,0,0,0,-7.4133,-7.4234,-7.4223,-7.44,-7.448,-7.4569,-7.4658,-7.4647,-7.4742,-7.4731,-7.4752,-7.4775,-7.4935,-7.4979,-7.4896,-7.5172,-7.5097,-7.5118,-7.5138,-7.5162,-7.5181,-7.5167,-7.4834,0,0,0,0,0,-7.4166,-7.4275,-7.4357,-7.4505,-7.4546,-7.4596,-7.4659,-7.4669,-7.4751,-7.4784,-7.4842,-7.4922,-7.5028,-7.5097,-7.5199,-7.538,-7.5401,-7.5461,-7.548,-7.5495,-7.5513,-7.5613,-7.5641,-7.5346,-7.5346,-7.5346,0,0,-7.4234,-7.4302,-7.437,-7.4518,-7.4581,-7.4693,-7.4624,-7.4745,-7.4828,-7.4802,-7.4955,-7.5,-7.5091,-7.5261,-7.5339,-7.5303,-7.5599,-7.5512,-7.5523,-7.5533,-7.5629,-7.5657,-7.5682,-7.5355,-7.5353,-7.5352,0,0,-7.4415,-7.4478,-7.4609,-7.4674,-7.4771,-7.4804,-7.4835,-7.4928,-7.4957,-7.5111,-7.5094,-7.5193,-7.5375,-7.5441,-7.5498,-7.5707,-7.5688,-7.5739,-7.5839,-7.5936,-7.5959,-7.598,-7.6055,-7.6082,-7.5756,-7.5756,-7.5756,0,-7.4487,-7.4657,-7.4678,-7.4802,-7.4867,-7.4851,-7.4984,-7.5045,-7.517,-7.5215,-7.5174,-7.5403,-7.5463,-7.5649,-7.5701,-7.5747,-7.5784,-7.5728,-7.5955,-7.5976,-7.5995,-7.6067,-7.6095,-7.5762,-7.5761,-7.5761,-7.576,0,-7.4741,-7.4858,-7.4952,-7.5076,-7.5152,-7.5279,-7.5319,-7.5394,-7.5397,-7.5434,-7.5591,-7.5663,-7.5779,-7.5824,-7.5827,-7.6011,-7.5986,-7.595,-7.5874,-7.6028,-7.6096,-7.6124,-7.577,-7.5768,-7.5766,-7.5765,0,0,-7.496,-7.5095,-7.5129,-7.5185,-7.5292,-7.5383,-7.5509,-7.5625,-7.5689,-7.5775,-7.5882,-7.6038,-7.6005,-7.6071,-7.6081,-7.6167,-7.6329,-7.612,-7.6122,-7.6157,-7.6537,-7.6564,-7.6595,-7.6317,-7.6322,-7.6327,-7.6529,0,-7.5152,-7.5378,-7.5402,-7.5603,-7.5712,-7.5699,-7.5809,-7.5886,-7.5924,-7.6022,-7.6062,-7.6173,-7.6121,-7.6161,-7.6245,-7.6291,-7.6405,-7.6277,-7.6416,-7.6421,-7.6395,-7.6631,-7.666,-7.6848,-7.6556,-7.656,-7.6564,0,-7.5406,-7.5503,-7.5716,-7.5808,-7.5855,-7.5954,-7.6063,-7.6156,-7.6243,-7.6265,-7.6339,-7.6339,-7.6469,-7.6389,-7.6569,-7.6481,-7.6539,-7.6571,-7.6579,-7.6593,-7.6502,-7.6652,-7.6908,-7.6936,-7.6605,-7.6602,-7.6599,0,-7.5546,-7.5729,-7.588,-7.5929,-7.604,-7.611,-7.616,-7.6242,-7.6311,-7.6405,-7.645,-7.6557,-7.6616,-7.6699,-7.6728,-7.6667,-7.6907,-7.6829,-7.6928,-7.6928,-7.698,-7.6976,-7.725,-7.7017,-7.7016,-7.7016,-7.7015,0,-7.5759,-7.5889,-7.5945,-7.6038,-7.6184,-7.621,-7.6354,-7.64,-7.6473,-7.6575,-7.6569,-7.6664,-7.6696,-7.6797,-7.682,-7.6966,-7.6992,-7.7013,-7.7018,-7.7014,-7.7012,-7.7053,-7.704,-7.7023,-7.7022,-7.702,-7.7019,0,-7.594,-7.5982,-7.6146,-7.6239,-7.6266,-7.637,-7.6449,-7.6539,-7.6575,-7.6704,-7.6735,-7.6793,-7.6911,-7.6948,-7.709,-7.7106,-7.7276,-7.7269,-7.7248,-7.7249,-7.7346,-7.7337,-7.7656,-7.7699,-7.7437,-7.744,-7.7442,0,-7.6072,-7.6173,-7.6278,-7.6346,-7.6399,-7.6509,-7.6579,-7.6608,-7.6682,-7.679,-7.6866,-7.6984,-7.7079,-7.7268,-7.7322,-7.7431,-7.7426,-7.7531,-7.7442,-7.7436,-7.7429,-7.7423,-7.7433,-7.7547,-7.755,-7.7552,-7.7554,0,-7.6304,-7.6321,-7.6423,-7.6534,-7.6619,-7.6707,-7.6791,-7.6847,-7.6889,-7.6972,-7.7093,-7.7168,-7.7314,-7.743,-7.7541,-7.7591,-7.758,-7.7582,-7.761,-7.7608,-7.7592,-7.7603,-7.7294,-7.7574,-7.7572,-7.7571,-7.7569,-7.7569,-7.6466,-7.6555,-7.6643,-7.6758,-7.6825,-7.6905,-7.6995,-7.7044,-7.7146,-7.7269,-7.7279,-7.7411,-7.7496,-7.7644,-7.77,-7.7803,-7.7772,-7.7814,-7.7825,-7.7835,-7.7843,-7.7575,-7.7823,-7.7822,-7.7822,-7.7821,-7.7821,0,-7.6698,-7.6754,-7.686,-7.698,-7.707,-7.7053,-7.7147,-7.7223,-7.734,-7.7421,-7.7516,-7.7656,-7.7769,-7.7833,-7.7946,-7.8016,-7.8014,-7.8045,-7.804,-7.8052,-7.7863,-7.7827,-7.8045,-7.8045,-7.8045,-7.8045,-7.8045,-7.8045,-7.6829,-7.698,-7.7007,-7.7192,-7.7247,-7.7377,-7.7432,-7.7506,-7.7571,-7.7729,-7.7824,-7.7865,-7.7939,-7.8058,-7.8161,-7.8177,-7.8219,-7.8253,-7.8266,-7.8088,-7.8065,-7.8043,-7.801,-7.8262,-7.8262,-7.8446,-7.8448,-7.8449]}]]